#timestamp,LO_Frequency,Hit,StdDev 
1551243615.2,286047000.6,N
1551243635.0,286046999.1,N
1551243635.9,286046999.1,N
1551243655.8,286046996.7,N
1551243675.6,286047000.0,N
1551243695.4,286047001.2,N
1551243715.3,286046997.0,N
1551243735.1,286046997.2,N
1551243755.9,286046999.2,N
1551243775.7,286046998.9,N
1551243795.5,286046999.0,N
1551243815.4,286047001.1,N
1551243835.2,286046999.0,N
1551243855.0,286047000.5,N
1551243855.9,286047000.5,N
1551243875.8,286047002.8,N
1551243895.6,286046999.8,N
1551243915.5,286047001.4,N
1551243935.3,286047002.5,N
1551243955.1,286047001.4,N
1551243975.9,286047001.5,N
1551243995.7,286047003.2,N
1551244015.5,286047005.6,N
1551244035.4,286047002.9,N
1551244055.2,286047005.6,N
1551244075.1,286047003.0,N
1551244076.0,286047003.0,N
1551244095.8,286047005.9,N
1551244115.6,286047007.0,N
1551244135.5,286047003.2,N
1551244155.3,286047003.9,N
1551244175.2,286047005.2,N
1551244195.9,286047007.0,N
1551244215.7,286047006.0,N
1551244235.6,286047004.3,N
1551244255.4,286047001.9,N
1551244275.2,286047001.7,N
1551244295.1,286047003.4,N
1551244296.0,286047003.4,N
1551244315.8,286047003.4,N
1551244335.7,286047004.4,N
1551244355.5,286047002.8,N
1551244375.3,286047001.0,N
1551244395.2,286047001.0,N
1551244415.0,286047000.8,N
1551244415.9,286047000.8,N
1551244435.7,286047000.9,N
1551244455.6,286046999.7,N
1551244475.4,286047000.5,N
1551244495.3,286047000.4,N
1551244515.1,286046998.1,N
1551244516.0,286046998.1,N
1551244535.8,286046996.6,N
1551244555.7,286046996.8,N
1551244575.5,286046994.9,N
1551244595.3,286046995.4,N
1551244615.2,286046996.4,N
1551244635.0,286046997.6,N
1551244635.9,286046997.6,N
1551244655.8,286046997.1,N
1551244675.6,286046997.5,N
1551244695.4,286046994.9,N
1551244715.3,286046997.5,N
1551244735.1,286046997.2,N
1551244755.9,286046996.7,N
1551244775.7,286046996.8,N
1551244795.5,286046997.3,N
1551244815.4,286046997.4,N
1551244835.2,286046993.3,N
1551244855.0,286046995.5,N
1551244855.9,286046995.5,N
1551244875.8,286046997.5,N
1551244895.6,286046996.2,N
1551244915.5,286046995.0,N
1551244935.3,286046999.5,N
1551244955.1,286046997.9,N
1551244975.9,286046994.9,N
1551244995.7,286046997.6,N
1551245015.5,286046995.7,N
1551245035.4,286046995.8,N
1551245055.2,286046996.3,N
1551245075.1,286046991.9,Y
1551245076.0,286046991.9,P
1551245095.8,286046994.9,N
1551245115.6,286046993.3,P
1551245135.5,286046993.9,Y
1551245155.3,286047000.3,P
1551245175.1,286047000.1,N
1551245195.9,286047002.2,N
1551245215.7,286047001.8,N
1551245235.6,286047001.7,N
1551245255.4,286047002.1,N
1551245275.2,286047002.5,N
1551245295.1,286047002.8,N
1551245296.0,286047002.8,N
1551245315.8,286047000.9,N
1551245335.6,286047000.7,N
1551245355.5,286047000.6,N
1551245375.3,286047000.9,N
1551245395.2,286047000.9,N
1551245415.9,286046998.2,N
1551245435.7,286047000.6,N
1551245455.6,286046999.7,N
1551245475.4,286047000.7,N
1551245495.2,286046998.8,N
1551245515.1,286046999.5,N
1551245516.0,286046999.5,N
1551245535.8,286046997.1,N
1551245555.7,286046995.0,N
1551245575.5,286046995.0,N
1551245595.3,286046995.0,N
1551245615.2,286046997.0,N
1551245635.0,286046997.8,N
1551245635.9,286046997.8,N
1551245655.7,286046997.1,N
1551245675.6,286046999.4,N
1551245695.4,286046998.6,N
1551245715.3,286046999.0,N
1551245735.1,286046998.5,N
1551245755.8,286047000.5,N
1551245775.7,286046999.7,N
1551245795.5,286046999.7,N
1551245815.4,286046998.5,N
1551245835.2,286047000.9,N
1551245855.0,286046998.9,N
1551245855.9,286046998.9,N
1551245875.8,286046997.8,N
1551245895.6,286046997.2,N
1551245915.5,286046999.6,N
1551245935.3,286046999.2,N
1551245955.1,286046997.0,N
1551245975.9,286046997.0,N
1551245995.7,286046999.6,N
1551246015.5,286046998.8,N
1551246035.4,286046998.3,N
1551246055.2,286046996.5,N
1551246075.1,286046997.6,N
1551246076.0,286046997.6,N
1551246095.8,286046995.2,Y
1551246115.6,286046996.7,P
1551246135.5,286046999.2,N
1551246155.3,286046998.3,N
1551246175.2,286046997.1,Y
1551246195.9,286046998.4,P
1551246215.7,286047000.9,P
1551246235.6,286047000.9,N
1551246255.4,286047002.7,N
1551246275.2,286047000.0,N
1551246295.1,286047000.4,N
1551246296.0,286047000.4,N
1551246345.8,286047002.0,E
1551246355.8,286047002.5,N
1551246375.6,286046998.2,P
1551246395.4,286046998.9,N
1551246415.3,286047001.1,N
1551246435.1,286046998.2,N
1551246455.8,286046999.4,N
1551246475.7,286046999.0,N
1551246495.5,286046999.1,N
1551246515.4,286046996.8,N
1551246535.2,286046996.6,N
1551246555.0,286046997.5,N
1551246555.9,286046997.5,N
1551246575.8,286046997.7,N
1551246595.6,286046998.0,N
1551246615.5,286046997.8,N
1551246635.3,286046997.7,N
1551246655.1,286046996.9,N
1551246675.9,286046999.6,N
1551246695.7,286046999.0,N
1551246715.5,286046998.3,N
1551246735.4,286046998.6,N
1551246755.2,286047000.5,N
1551246775.1,286047000.6,N
1551246776.0,286047000.6,N
1551246795.8,286047000.4,N
1551246815.6,286047000.1,N
1551246835.5,286047002.8,N
1551246855.3,286046999.8,N
1551246875.2,286047000.5,N
1551246895.9,286047000.6,N
1551246915.7,286047000.5,N
1551246935.6,286047001.2,N
1551246955.4,286046998.7,N
1551246975.2,286046998.1,N
1551246995.1,286047000.3,N
1551246996.0,286047000.3,N
1551247015.8,286047001.0,N
1551247035.7,286047000.2,N
1551247055.5,286047000.4,N
1551247075.3,286047000.1,N
1551247095.2,286046998.1,N
1551247115.0,286047000.9,N
1551247115.9,286047000.9,N
1551247165.8,286046999.9,E
1551247175.7,286047001.9,N
1551247195.5,286047002.8,P
